Wind_Speed
40 36 32 33 27 20 22 27 28 34 43 41 50 52 51 47 46 50 48 47 45 45 41 38 38 37 34 32 30 29 30 28 27 26 27 29 31 29
39 40 39 37 33 34 25 22 26 23 34 40 43 47 51 51 49 47 50 50 48 47 45 43 42 40 38 36 34 32 32 31 30 28 29 29 31 31
42 41 41 41 34 39 33 31 28 28 29 38 41 41 50 47 46 46 45 54 51 50 48 47 45 43 42 39 37 36 34 34 33 31 31 30 31 32
46 43 42 41 42 37 33 35 31 28 32 35 42 42 43 47 47 48 50 51 54 55 52 51 50 47 46 44 41 39 38 37 35 35 34 32 32 32
50 48 45 43 42 41 40 36 36 30 31 31 33 40 41 45 47 51 48 50 49 55 57 55 52 50 49 47 45 44 42 41 38 38 36 36 33 32
54 51 48 46 44 44 44 42 37 33 32 30 30 32 35 43 44 47 44 45 43 47 49 58 55 54 52 50 48 47 46 44 42 41 38 38 35 33
57 53 54 49 46 44 45 42 39 33 34 39 32 33 34 41 45 44 47 45 42 42 44 38 43 50 55 54 51 50 49 49 47 45 40 38 37 35
60 55 52 52 52 50 44 45 41 42 40 43 39 36 33 38 43 48 48 48 51 46 47 45 44 44 46 47 53 55 54 53 51 50 44 41 38 38
63 58 54 52 53 54 50 44 49 49 48 39 38 34 37 36 41 43 48 49 52 47 53 49 46 42 40 38 41 47 49 55 54 52 48 45 41 42
66 63 61 56 53 53 53 55 53 49 52 50 42 40 41 41 41 41 40 45 53 52 50 48 48 47 48 49 48 46 43 44 54 52 49 48 43 40
70 67 65 62 58 57 56 56 56 57 53 50 58 46 47 40 41 43 41 43 42 43 48 50 46 45 44 44 45 47 49 48 47 52 47 45 44 43
73 71 69 66 64 62 61 60 58 56 55 55 53 53 57 59 49 45 45 40 38 38 43 47 45 50 47 47 44 44 56 58 56 53 52 47 44 43
72 72 72 70 69 66 65 65 63 62 58 57 58 57 58 64 67 59 53 52 47 44 44 47 48 47 50 48 48 51 55 61 62 57 50 51 48 45
74 74 73 72 71 70 69 68 67 66 64 61 60 61 60 60 63 65 60 58 53 53 52 50 49 47 46 48 49 47 50 52 58 56 53 56 49 47
76 76 75 74 73 73 72 71 71 70 69 66 65 64 61 62 63 61 63 61 58 54 55 54 53 52 51 46 44 40 37 40 51 55 51 51 51 51
77 76 76 76 75 74 73 73 73 73 72 71 68 67 66 65 64 64 62 61 59 58 56 55 57 57 56 50 51 46 44 44 47 47 44 45 49 51
71 75 77 76 76 76 76 76 76 75 75 74 73 71 70 69 68 65 64 64 63 59 58 57 58 63 63 60 55 54 50 51 51 51 49 48 50 50
60 66 69 72 75 76 76 77 77 78 77 77 76 75 75 74 72 71 68 68 68 66 61 59 61 60 62 63 64 58 60 58 59 58 52 54 55 53
46 54 62 66 70 73 77 78 78 79 79 79 79 79 79 78 78 76 74 73 72 70 70 66 62 62 63 64 65 62 66 66 64 60 63 65 61 57
38 44 52 58 63 68 73 77 80 82 82 82 82 82 81 81 82 81 78 77 76 75 74 72 69 66 63 64 65 68 65 65 64 63 62 60 57 57
39 43 45 48 53 59 66 71 74 79 84 87 88 87 86 86 86 85 84 83 81 78 77 77 77 74 71 68 68 66 66 67 65 67 63 58 58 58
36 37 39 43 50 56 57 61 65 71 79 82 85 89 92 92 91 91 90 88 87 86 85 83 82 81 78 75 75 73 68 65 71 72 69 66 64 63
36 39 43 47 49 49 51 57 63 67 69 73 79 86 89 91 93 95 95 95 94 92 90 88 87 85 85 83 80 77 78 73 67 67 61 67 71 64
Wind_Direction
257 252 244 235 236 234 231 230 235 234 229 231 228 233 233 234 236 232 229 230 234 239 240 243 245 247 248 251 256 263 271 278 285 294 301 309 311 315
248 257 256 246 246 234 228 229 229 235 230 229 232 235 233 235 238 239 234 232 232 237 240 241 246 248 250 252 255 259 267 273 280 287 294 301 307 310
237 244 252 258 253 252 242 240 233 241 237 233 235 238 234 239 238 239 240 237 232 234 238 242 244 247 250 252 255 259 264 269 274 280 286 294 298 304
238 240 244 253 259 251 250 242 239 247 242 243 239 242 242 239 236 240 242 238 239 234 234 238 242 246 249 252 255 258 262 265 270 276 281 286 292 300
237 237 239 243 249 257 254 253 234 252 246 248 251 240 242 239 239 241 242 239 240 245 241 237 240 244 248 251 254 257 258 263 267 271 277 281 286 295
239 240 240 240 245 249 256 255 252 249 243 243 246 244 238 235 236 235 232 235 240 245 243 243 237 242 246 250 252 256 259 261 263 266 269 276 283 287
241 239 241 240 241 245 248 255 254 231 243 248 256 242 239 238 242 239 239 240 240 245 242 240 245 247 246 248 250 254 258 261 261 262 266 272 279 284
240 241 240 240 239 243 243 245 246 238 246 252 256 241 239 237 242 245 246 243 236 247 248 247 246 248 251 250 255 252 253 257 261 263 263 267 273 282
240 241 240 240 240 241 243 244 243 245 253 251 239 239 242 241 238 244 241 246 240 240 242 246 245 245 250 251 255 252 255 256 256 261 265 267 270 278
241 241 241 241 241 243 243 243 245 249 256 253 248 238 242 234 237 239 243 241 239 243 247 247 252 255 262 262 259 255 254 258 255 254 262 265 266 270
241 241 241 242 242 242 244 245 245 246 249 252 257 255 243 240 236 241 242 248 246 246 246 246 249 251 255 262 263 262 265 263 261 253 256 259 263 268
241 242 242 243 242 243 244 246 246 247 248 249 249 249 254 254 253 245 242 247 250 254 252 250 248 249 254 257 260 260 264 265 261 259 256 257 258 265
238 241 242 243 244 244 244 245 247 249 249 249 249 248 250 254 260 259 266 269 265 263 264 259 254 256 255 254 257 269 268 256 255 256 254 251 259 263
235 238 241 242 244 244 245 246 247 248 249 249 250 251 250 251 253 261 263 263 264 268 265 263 254 259 266 263 263 264 263 250 246 248 253 254 260 262
235 237 238 240 242 243 244 244 246 248 249 249 248 250 250 251 253 254 256 258 260 260 261 263 266 267 259 264 260 268 259 243 241 250 255 255 260 262
235 237 238 239 240 242 243 243 244 245 247 249 249 249 251 251 251 253 254 254 254 253 256 258 264 265 265 260 258 264 256 250 246 249 255 257 259 262
234 236 238 239 241 241 242 243 244 244 245 246 248 249 249 249 251 251 252 254 255 254 252 253 256 263 266 269 262 260 251 251 251 250 252 256 258 260
244 240 239 238 239 241 241 242 243 243 244 245 246 247 248 249 249 250 250 251 251 252 252 251 251 251 257 262 264 263 256 251 247 251 254 259 260 263
252 251 248 246 244 243 242 242 243 243 244 244 245 245 246 247 248 248 248 248 249 249 251 251 249 249 249 252 253 257 255 253 253 254 249 251 255 254
255 255 254 252 251 251 249 247 245 244 244 245 244 244 245 246 247 247 247 247 249 249 248 249 250 248 248 246 249 248 249 249 251 250 251 249 250 251
269 261 257 256 256 255 254 252 251 251 248 246 245 245 246 245 245 246 246 246 246 245 245 247 249 249 248 247 244 244 246 247 249 250 250 255 251 249
284 280 276 272 266 259 256 256 255 255 253 251 249 248 246 245 246 245 245 245 245 245 245 245 246 247 247 246 246 243 245 245 245 247 247 252 255 251
286 284 282 281 278 274 269 265 259 256 254 253 253 252 249 248 247 246 245 245 245 245 245 245 245 244 245 245 245 245 245 244 242 246 241 244 248 248
Height
5755 5759 5764 5769 5773 5778 5780 5784 5786 5789 5794 5798 5802 5807 5811 5814 5818 5821 5827 5830 5833 5837 5840 5844 5845 5847 5849 5850 5851 5851 5851 5851 5851 5850 5849 5847 5844 5843
5748 5751 5755 5761 5766 5770 5774 5776 5779 5781 5784 5789 5793 5796 5800 5804 5809 5813 5818 5821 5825 5829 5833 5835 5838 5840 5842 5844 5845 5845 5845 5845 5845 5845 5843 5842 5840 5838
5742 5744 5748 5751 5756 5760 5765 5768 5771 5773 5776 5779 5782 5786 5789 5795 5801 5805 5808 5811 5815 5820 5824 5826 5829 5832 5834 5836 5837 5838 5839 5838 5838 5838 5837 5836 5834 5832
5731 5736 5740 5743 5747 5750 5755 5759 5763 5766 5768 5771 5775 5778 5780 5786 5790 5794 5798 5801 5805 5809 5813 5817 5819 5822 5825 5827 5829 5831 5831 5831 5831 5831 5831 5831 5829 5827
5721 5726 5730 5735 5738 5742 5746 5750 5755 5758 5760 5763 5766 5768 5771 5775 5779 5784 5788 5791 5795 5797 5801 5805 5809 5813 5815 5818 5821 5822 5823 5824 5824 5824 5824 5824 5823 5822
5709 5714 5720 5724 5730 5733 5738 5741 5746 5750 5752 5754 5757 5759 5761 5764 5768 5772 5777 5781 5784 5787 5789 5794 5797 5800 5804 5808 5810 5813 5815 5815 5815 5815 5816 5815 5816 5815
5696 5704 5708 5715 5720 5723 5729 5732 5736 5739 5743 5746 5749 5751 5754 5756 5760 5764 5768 5771 5775 5777 5780 5783 5788 5789 5793 5796 5800 5804 5806 5806 5806 5806 5807 5808 5808 5808
5682 5690 5697 5703 5709 5712 5717 5723 5726 5730 5733 5736 5739 5742 5744 5746 5749 5753 5756 5760 5765 5769 5772 5775 5776 5779 5783 5786 5789 5790 5793 5794 5797 5798 5799 5800 5800 5800
5670 5677 5684 5690 5696 5701 5706 5710 5715 5718 5722 5725 5730 5731 5734 5735 5739 5742 5745 5748 5753 5758 5758 5761 5764 5770 5773 5775 5776 5777 5779 5782 5786 5788 5791 5792 5792 5792
5657 5664 5671 5678 5685 5689 5694 5699 5703 5707 5711 5715 5719 5720 5724 5725 5729 5732 5734 5737 5740 5745 5749 5752 5757 5759 5761 5763 5764 5766 5767 5770 5772 5776 5779 5782 5782 5781
5642 5649 5657 5664 5671 5676 5680 5684 5690 5694 5699 5702 5707 5709 5712 5713 5716 5720 5725 5728 5731 5735 5738 5740 5745 5750 5750 5750 5752 5754 5757 5758 5761 5764 5766 5770 5772 5772
5627 5633 5641 5648 5655 5661 5665 5669 5675 5679 5683 5689 5693 5696 5700 5700 5703 5708 5711 5716 5720 5723 5728 5728 5732 5734 5737 5740 5741 5742 5743 5745 5748 5751 5756 5757 5760 5762
5609 5616 5624 5632 5639 5645 5649 5654 5659 5664 5669 5673 5677 5681 5685 5688 5690 5695 5700 5703 5707 5712 5716 5715 5718 5720 5723 5729 5729 5727 5727 5730 5735 5739 5742 5745 5748 5751
5591 5598 5606 5614 5621 5627 5633 5638 5643 5647 5652 5656 5661 5665 5668 5673 5678 5680 5684 5690 5693 5698 5700 5703 5705 5708 5710 5711 5715 5716 5712 5714 5721 5728 5730 5733 5735 5739
5574 5581 5588 5595 5602 5608 5613 5619 5624 5629 5633 5638 5644 5648 5653 5657 5661 5665 5669 5673 5678 5683 5684 5687 5691 5693 5695 5698 5701 5700 5701 5705 5711 5715 5718 5720 5722 5725
5556 5563 5569 5576 5583 5588 5594 5600 5605 5609 5613 5618 5624 5629 5634 5639 5643 5647 5652 5655 5660 5664 5667 5669 5674 5677 5682 5686 5689 5692 5693 5695 5699 5701 5704 5707 5710 5713
5539 5545 5551 5557 5562 5568 5573 5578 5584 5589 5594 5599 5603 5608 5614 5619 5623 5628 5632 5636 5640 5645 5650 5652 5655 5660 5665 5672 5675 5679 5681 5683 5686 5687 5690 5693 5696 5699
5524 5528 5532 5537 5542 5547 5552 5557 5562 5567 5572 5577 5583 5588 5592 5597 5602 5607 5612 5615 5620 5625 5629 5634 5637 5641 5647 5653 5659 5665 5666 5669 5671 5673 5676 5678 5683 5687
5510 5513 5516 5520 5523 5527 5531 5535 5540 5545 5549 5554 5559 5564 5569 5575 5579 5584 5589 5594 5598 5603 5608 5612 5618 5622 5626 5634 5640 5644 5648 5652 5655 5656 5659 5662 5668 5672
5498 5499 5501 5503 5505 5507 5510 5513 5517 5521 5526 5530 5535 5540 5545 5550 5555 5560 5565 5570 5575 5580 5585 5589 5593 5600 5605 5612 5620 5627 5627 5632 5636 5638 5641 5645 5649 5653
5486 5486 5486 5487 5488 5489 5491 5492 5494 5496 5500 5505 5509 5514 5519 5524 5529 5534 5539 5544 5550 5555 5560 5566 5570 5575 5581 5589 5597 5605 5607 5610 5616 5620 5623 5626 5629 5636
5475 5473 5472 5471 5470 5471 5472 5471 5472 5473 5475 5478 5481 5485 5489 5495 5501 5506 5512 5518 5523 5529 5535 5541 5545 5551 5556 5563 5572 5581 5587 5588 5592 5598 5604 5607 5612 5618
5463 5461 5458 5455 5454 5453 5451 5449 5450 5450 5449 5450 5452 5455 5459 5464 5469 5475 5482 5487 5494 5499 5506 5513 5518 5525 5531 5536 5544 5553 5561 5566 5570 5575 5582 5587 5592 5597